Hourly Data Report for May 23, 2012

All times are specified in Local Standard Time (LST). Add 1 hour to adjust for Daylight Saving Time where and when it is observed.

HAMILTON A
ONTARIO

43°10'25.000" N
79°56'06.000" W
237.70 m
6153193
71263
YHM

Download Data

Hourly Data (May 2012)
Hourly Data Report for May 23, 2012
Temp Definition
°C
Dew Point Temp Definition
°C
Rel Hum Definition
%
Wind Dir Definition
10's deg

Wind Spd Definition
km/h
Visibility Definition
km
Stn Press Definition
kPa
Hmdx Definition


Wind Chill Definition


Weather Definition


TIME
00:00 Legend Double Dagger 17.0 14.9 87 3 13 10.0 98.47     LegendNANA
01:00 Legend Double Dagger 17.0 14.1 83 3 18 10.0 98.47     Cloudy
02:00 Legend Double Dagger 15.3 13.7 90 3 14 10.0 98.43     LegendNANA
03:00 Legend Double Dagger 15.5 14.6 94 2 13 10.0 98.44     LegendNANA
04:00 Legend Double Dagger 15.2 14.6 96 4 14 9.7 98.46     Fog
05:00 Legend Double Dagger 14.6 14.5 99 4 13 1.6 98.47     Fog
06:00 Legend Double Dagger 15.3 14.8 97 4 9 3.2 98.55     Fog
07:00 Legend Double Dagger 16.5 15.2 92 6 9 6.4 98.58     Fog
08:00 Legend Double Dagger 17.1 15.1 88 8 9 8.1 98.64     Fog
09:00 Legend Double Dagger 19.0 16.1 83 5 7 8.1 98.69     Haze
10:00 Legend Double Dagger 20.5 16.4 77 12 8 9.7 98.67 25   Haze
11:00 Legend Double Dagger 22.5 16.4 68 16 15 10.0 98.64 27   LegendNANA
12:00 Legend Double Dagger 22.9 16.8 68 13 13 10.0 98.62 28   LegendNANA
13:00 Legend Double Dagger 22.3 16.7 70 8 17 10.0 98.63 27   Mostly Cloudy
14:00 Legend Double Dagger 21.9 16.5 71 8 13 10.0 98.63 27   LegendNANA
15:00 Legend Double Dagger 22.2 16.6 70 8 16 10.0 98.59 27   LegendNANA
16:00
17:00 Legend Double Dagger 21.2 16.3 73 5 21 10.0 98.55 26   LegendNANA
18:00 Legend Double Dagger 19.6 15.7 78 6 20 10.0 98.53     LegendNANA
19:00 Legend Double Dagger 18.6 15.3 81 6 14 10.0 98.51     Mostly Cloudy
20:00 Legend Double Dagger 16.4 14.6 89 3 11 10.0 98.53     LegendNANA
21:00 Legend Double Dagger 15.7 14.6 93 2 11 10.0 98.58     LegendNANA
22:00 Legend Double Dagger 14.8 14.0 95 3 10 10.0 98.60     Clear
23:00 Legend Double Dagger 14.6 13.7 94 4 12 10.0 98.61     LegendNANA

Notes on Data Quality.

Legend

  • E = Estimated
  • M = Missing
  • NA = Not Available
  • ‡ = Partner data that is not subject to review by the National Climate Archives
Date modified: